Regional Weather Roundup
Issued by NWS

Home | Current Version | Previous Version | Text Only | Print | Product List | Glossary Off
Versions: 1 2 3 4 5 6 7 8 9 10 11 12 13 14 15 16 17 18 19 20 21 22 23 24 25 26 27 28 29 30 31 32 33 34 35 36 37 38 39 40 41 42 43 44 45 46 47 48 49 50

000
ASUS43 KBIS 222010
RWRND

NORTH DAKOTA REGIONAL WEATHER ROUNDUP
NATIONAL WEATHER SERVICE BISMARCK ND
300 PM CDT TUE APR 22 2014

NOTE: "FAIR" INDICATES FEW OR NO CLOUDS BELOW 12,000 FEET WITH NO
SIGNIFICANT WEATHER AND/OR OBSTRUCTIONS TO VISIBILITY.


NDZ001>003-009>011-017-222100-
NORTHWEST NORTH DAKOTA

CITY           SKY/WX    TMP DP  RH WIND       PRES   REMARKS
WILLISTON      PTSUNNY   69  28  21 SE23      29.77F
MINOT          MOSUNNY   67  29  24 E18G26    29.88F
MINOT AFB      MOSUNNY   67  33  27 SE18G28   29.88F
$$

NDZ018>021-031>035-040>046-222100-
SOUTHWEST NORTH DAKOTA

CITY           SKY/WX    TMP DP  RH WIND       PRES   REMARKS
BISMARCK       MOSUNNY   70  29  21 S24G31    29.88F
DICKINSON      MOSUNNY   70  29  21 SE31G39   29.77F
GARRISON         N/A     69  30  23 SE21      29.86F
HETTINGER ARPT SUNNY     68  33  27 SE22G32   29.79F
$$

NDZ004>008-012>016-024-026-027-054-222100-
NORTHEAST NORTH DAKOTA

CITY           SKY/WX    TMP DP  RH WIND       PRES   REMARKS
GRAND FORKS    MOSUNNY   59  34  39 S5        30.04F
GRND FRKS AFB  SUNNY     60  34  36 SE8       30.04F
DEVILS LAKE    SUNNY     61  30  31 SE12      29.98F
$$

NDZ022-023-025-028>030-036>039-047>053-222100-
SOUTHEAST NORTH DAKOTA

CITY           SKY/WX    TMP DP  RH WIND       PRES   REMARKS
FARGO          SUNNY     62  33  33 E7        30.04F
JAMESTOWN      MOSUNNY   63  36  36 SE18G25   29.96F
$$




USA.gov is the U.S. government's official web portal to all federal, state and local government web resources and services.